User: anonymous   Login
Location: Unspecified
(0.0000°N, 0.0000°E)
Time: 17:20:46
(UTC+01:00)
Language:

Cosmos 1898 Rocket - Orbit

View from above orbital plane
View from above orbital plane
View from above satellite
View from above satellite

Ground track
Ground track

The orbit data is extracted from the following two-line orbital elements,

1 18586U 87098B   18054.78897753 -.00000015 +00000-0 +40280-5 0  9998
2 18586 074.0072 192.0240 0021169 192.2967 167.7672 14.36808132583191
Epoch (UTC): 23 February 2018 18:56:07
Eccentricity: 0.0021169
inclination: 74.0072°
perigee height: 754 km
apogee height: 784 km
right ascension of ascending node: 192.0240°
argument of perigee: 192.2967°
revolutions per day: 14.36808132
mean anomaly at epoch: 167.7672°
orbit number at epoch: 58319

The dashed part of the orbit path shows where the satellite is in the earth's shadow,  

DLR